This demonstration page uses our WeatherBlox Daily Observations layout. Learn more.

Left ArrowRight Arrow

38.88101, -77.10428

Hourly Observations for October 22, 2022

Temp ( °F °C ) Dew Point ( °F °C ) Humidity (%) Winds ( mph kmh ) Pressure ( in mb ) Visibility ( mi km ) Precip ( " mm )
12:52 am 00:52 Mostly Clear 51 10.6 43 6.1 74 74 WSW 3 6 30.20 1023 10 16 0.00 0.00
1:52 am 01:52 Mostly Clear 51 10.6 44 6.7 77 77 Calm 30.20 1023 10 16 0.00 0.00
2:52 am 02:52 Mostly Clear 49 9.4 43 6.1 80 80 Calm 30.20 1023 10 16 0.00 0.00
3:52 am 03:52 Mostly Clear 47 8.3 42 5.6 83 83 Calm 30.19 1023 10 16 0.00 0.00
4:52 am 04:52 Mostly Clear 46 7.8 42 5.6 86 86 SW 3 6 30.20 1023 10 16 0.00 0.00
5:52 am 05:52 Partly Cloudy 47 8.3 43 6.1 86 86 Calm 30.21 1023 10 16 0.00 0.00
6:52 am 06:52 Partly Cloudy 46 7.8 43 6.1 89 89 Calm 30.23 1024 10 16 0.00 0.00
7:52 am 07:52 Mostly Sunny 46 7.8 43 6.1 89 89 ENE 3 6 30.24 1024 9 14 0.00 0.00
8:52 am 08:52 Sunny 49 9.4 45 7.2 86 86 ENE 5 7 30.27 1025 9 14 0.00 0.00
9:52 am 09:52 Sunny 53 11.7 46 7.8 77 77 Calm 30.28 1025 10 16 0.00 0.00
10:52 am 10:52 Sunny 57 13.9 48 8.9 72 72 SSE 6 9 30.28 1025 10 16 0.00 0.00
11:52 am 11:52 Sunny 61 16.1 48 8.9 62 62 S 7 11 30.27 1025 10 16 0.00 0.00
12:52 pm 12:52 Mostly Sunny 66 18.9 43 6.1 43 43 S 6 9 30.25 1024 10 16 0.00 0.00
1:52 pm 13:52 Mostly Sunny 69 20.6 43 6.1 39 39 SSW 6 9 30.22 1024 10 16 0.00 0.00
2:52 pm 14:52 Mostly Sunny 69 20.6 41 5 36 36 SSW 6 9 30.22 1024 10 16 0.00 0.00
3:52 pm 15:52 Partly Cloudy 70 21.1 41 5 35 35 VRB 5 7 30.22 1023 10 16 0.00 0.00
4:52 pm 16:52 Mostly Cloudy 70 21.1 41 5 35 35 Calm 30.22 1023 10 16 0.00 0.00
5:52 pm 17:52 Mostly Cloudy 66 18.9 45 7.2 47 47 ESE 10 17 30.23 1024 10 16 0.00 0.00
6:52 pm 18:52 Mostly Cloudy 64 17.8 44 6.7 48 48 ESE 3 6 30.22 1023 10 16 0.00 0.00
7:52 pm 19:52 Mostly Cloudy 61 16.1 42 5.6 50 50 Calm 30.24 1024 10 16 0.00 0.00
8:52 pm 20:52 Mostly Cloudy 59 15 48 8.9 67 67 Calm 30.25 1024 10 16 0.00 0.00
9:52 pm 21:52 Mostly Cloudy 56 13.3 45 7.2 66 66 NE 6 9 30.25 1025 10 16 0.00 0.00
10:52 pm 22:52 Mostly Cloudy 56 13.3 45 7.2 66 66 Calm 30.26 1025 10 16 0.00 0.00
11:52 pm 23:52 Mostly Cloudy 53 11.7 45 7.2 74 74 ENE 7 11 30.25 1024 10 16 0.00 0.00

Powered by AerisWeather